Погода в Порыме

Россия / Удмуртская Республика     56°00′51″N   51°58′31″E
темп.,
°C
ветер,
м/с
пор.,
м/с
влажн.,
%
обл.,
%
осадки,
мм/ч
давл.,
гПа
погр.,
м
3 марта, ср
ср301:00−3з6119594 0.1 998414
04:00−6з479793 0.3 999146
07:00−5зюз369693 0.1 998199
10:00−5зюз469696 0.4 999235
13:00−2зюз4696100 0.5 999481
16:00−2зсз5994100 1.1 1000605
19:00−6сз71291100 0.3 1001503
22:00−9зсз4109384 0.3 1003222
4 марта, чт
чт401:00−10з499679 0.0 1002176
04:00−12зюз499677 0.0 1002145
07:00−9юз61195100 0.4 1000414
10:00−7юз71194100 1.0 998500
13:00−3юз81394100 0.6 995847
16:00−2юз91495100 2.2 9931028
19:00−1зюз71493100 1.1 9911103
22:00−5з8168880 1.1 993589
5 марта, пт
пт501:00−7зюз6139368 0.0 996356
04:00−8з599684 0.1 998223
07:00−10з3697100 0.0 1000118
10:00−9сз3593100 0.1 1001247
13:00−7сз3589100 0.0 1002404
16:00−8зсз468891 0.0 1003439
19:00−14зсз499421 0.0 1006165
22:00−17зсз479611 0.0 1010119
6 марта, сб
сб601:00−17з34989 0.0 101161
04:00−17зюз349938 0.0 101248
07:00−17юз349985 0.0 101347
10:00−14юз479590 0.1 1012231
13:00−11юз469379 0.0 1012299
16:00−9юз349266 0.0 1010303
19:00−14юз239572 0.0 100921
22:00−14юз229586 0.0 100920
7 марта, вс
вс701:00−14зюз2296100 0.3 100826
04:00−14зсз349797 0.3 100988
07:00−18сз479793 0.1 1010122
10:00−18з359551 0.1 1011200
13:00−14юз469246 0.0 1011370
16:00−13ююз599270 0.0 1009435
19:00−13ю6129499 0.0 1007448
22:00−12ю71394100 0.3 1005626